Regional Weather Roundup
Issued by NWS

Home | Current Version | Previous Version | Graphics & Text | Print | Product List | Glossary On
Versions: 1 2 3 4 5 6 7 8 9 10 11 12 13 14 15 16 17 18 19 20 21 22 23 24 25 26 27 28 29 30 31 32 33 34 35 36 37 38 39 40 41 42 43 44 45 46 47 48 49 50
000
ASUS45 KABQ 280701
RWRNM
NEW MEXICO REGIONAL WEATHER ROUNDUP
NATIONAL WEATHER SERVICE ALBUQUERQUE NM
100 AM MDT THU JUL 28 2016

NOTE: "FAIR" MEANS FEW OR NO CLOUDS BELOW 12,000 FEET AGL WITH NO
       SIGNIFICANT WEATHER OR OBSTRUCTIONS TO VISION.

      THIS PRODUCT IS RELEASED AS TWO VERSIONS.  ONE VERSION NEAR
      THE TOP OF THE HOUR CONTAINING PRELIMINARY DATA FROM ALBUQUERQUE
      AND OTHER STATIONS.  A FINAL VERSION WITH ADDITIONAL DATA IS
      ISSUED ABOUT 10 MINUTES AFTER THE HOUR.

NMZ501-503-504-510>518-280800-
NORTHWEST PLATEAU/NORTHCENTRAL MOUNTAINS

CITY           SKY/WX    TMP DP  RH WIND       PRES   REMARKS
FARMINGTON     FAIR      80  26  13 NE12      30.11R
LOS ALAMOS     FAIR      70  46  43 S10G16    30.37S
SANTA FE       FAIR      72  49  44 SE14      30.30R
TAOS           FAIR      70  39  32 SE18      30.35S
ANGEL FIRE     FAIR      53  46  76 CALM      30.48S

$$
NMZ402-403-502-505>509-280800-
WESTCENTRAL MOUNTAINS/SOUTHWEST MOUNTAINS

CITY           SKY/WX    TMP DP  RH WIND       PRES   REMARKS
GALLUP         FAIR      72  36  26 NE3       30.24R
GRANTS         FAIR      72  47  41 S7        30.29R
SILVER CITY    TSTM      63  58  83 NW3       30.27R

$$
NMZ407-409-411-412-280800-
SOUTHERN DESERTS

CITY           SKY/WX    TMP DP  RH WIND       PRES   REMARKS
LORDSBURG      FAIR      72  61  68 E10       30.14R
DEMING         MOCLDY    75  56  51 N18G28    30.15R
LAS CRUCES     FAIR      77  55  47 NW8       30.14S
HOLLOMAN AFB   FAIR      75  59  57 NW5       30.08S
T OR C           N/A     71  59  65 W17       30.16

$$
NMZ519>523-280800-
CENTRAL VALLEYS/CENTRAL HIGHLANDS

CITY           SKY/WX    TMP DP  RH WIND       PRES   REMARKS
ALBUQUERQUE    FAIR      74  50  42 E10       30.21R
DOUBLE EAGLE   FAIR      71  51  49 CALM      30.25S
MORIARTY ARPT  FAIR      60  54  81 N3        30.31S
CLINES CORNERS FAIR      62  53  72 E10       30.38R
BELEN          NOT AVBL
SOCORRO        FAIR      69  57  64 NE8       30.16R

$$
NMZ524>526-539-540-280800-
SOUTHCENTRAL MOUNTAINS

CITY           SKY/WX    TMP DP  RH WIND       PRES   REMARKS
RUIDOSO          N/A     64  52  63 E5        30.37R

$$
NMZ527>531-280800-
NORTHEAST HIGHLANDS/NORTHEAST PLAINS

CITY           SKY/WX    TMP DP  RH WIND       PRES   REMARKS
LAS VEGAS      FAIR      59  51  75 E8        30.38S
RATON          FAIR     N/A N/A N/A S9        30.34R
CLAYTON        FAIR      63  58  83 SW8       30.22R

$$
NMZ532>537-280800-
EASTCENTRAL PLAINS

CITY           SKY/WX    TMP DP  RH WIND       PRES   REMARKS
TUCUMCARI      FAIR      69  56  62 S5        30.15F
CANNON AFB     FAIR      67  56  67 E8        30.17F
CLOVIS AIRPORT FAIR      64  52  63 E6        30.16F

$$
NMZ028-029-538-280800-
SOUTHEAST PLAINS

CITY           SKY/WX    TMP DP  RH WIND       PRES   REMARKS
ROSWELL        FAIR      78  59  51 N7        30.12R
CARLSBAD       FAIR      77  61  57 NW3       30.05S
HOBBS          FAIR      77  57  50 NE7       30.11S


$$



USA.gov is the U.S. government's official web portal to all federal, state and local government web resources and services.